Volver al catálogo

COSMOS 1375 DEB

ActivoLEO
NORAD 16209·DEBRIS·🇷🇺 Russia

Lanzado Jun 6, 1982 desde Plesetsk Cosmodrome

Loading…

Próximos Pases (próximas 24 horas)

TLE

ActualizadoSource: Space-Track

Época: Sep 14, 2026, 22:17 UTC

1 16209U 82055L   26257.92849632 -.00000085  00000-0 -59372-5 0  9999
2 16209  65.8355  52.0933 0024813 309.0867 131.9876 13.71428275 52737

Sigue COSMOS 1375 DEB en tiempo real con AllMySat

Download on the App Store